weather.gov     
National Weather Service

Terminal Aerodrome Forecast
NWS Homepage
This page is being discontinued on March 12, 2014.
The same data is available at this site. Please update your bookmarks.
Thank you, and we apologize for the inconvenience.
Please send an email to SR-SRH.Webmaster@noaa.gov with any concerns.


Current Version
Previous Version:    01  02  03  04  05  06  07  08  09  10  11  
[Printable]
886
FTPQ31 PGUM 191700
TAFPQ
TAF

PTKK 191728Z 1918/2018 04011KT P6SM VCSH FEW018 SCT120
     FM192000 04014KT P6SM VCSH FEW018 SCT050 BKN120
      TEMPO 1920/1924 -SHRA SCT014 BKN030=


U.S. Dept. of Commerce
NOAA National Weather Service
1325 East West Highway
Silver Spring, MD 20910
E-mail: w-nws.webmaster@noaa.gov
Page last modified: May 16, 2007
NATIONAL WEATHER SERVICE: for Safety, for Work, for Fun - FOR LIFE